SCOUT B DEB, 29178

Orbit data source: Space-Track

SCOUT B DEB, 29178 is space debris in LEO originally from a launch on Tue, 10 Aug 1965 UTC launched from the Wallops Island (WLPIS). Debris objects in space refer to the collection of defunct objects orbiting the Earth. Examples of debris include non-operational satellites, rocket bodies, and fragments generated from explosions, collisions, or faulty payload assembly.

Loading next visibility...
Identifier
29178, 1965-063AC
Orbit
LEO
Last TLE update
1 year ago
Origin
Manufacturer
Unknown
Mission
Spacecraft
Bus & Motor
Unknown
Mass
Unknown
Launch date (UTC)
1965-08-10 (60 years ago)
Launch vehicle
Unknown
Launch site
Wallops Island (WLPIS)
Object type
Payload
Rocket body
Debris
Shape & HBR
Unknown
Radar Cross Section
Small (<0.1 m²)

Expand to show TLE details & history

TLE from 1 year ago
0 SCOUT B DEB
1 29178U 65063AC  24113.56103103  .00000615  00000-0  42642-2 0  9999
2 29178  69.2088 178.7618 0768593   4.3819  55.6524 11.85292181823483
Epoch: 2024-04-22T13:27Z
Definitive object data (Epoch: 2024-04-22T13:27:53.08Z)
Latitude
59.98284°
Longitude
166.53073°
Altitude
1,439.416 km
Speed
7.286 km/s
True Right ascension
14h 38m 24s
True Declination
59° 50' 48"
Sunlit
Object was in daylight at TLE epoch
Visualization TLE readout
Latitude
19.52936°
Longitude
72.17361°
Altitude
1,815.96 km
Speed
6.948 km/s
Apparent Right ascension
09h 51m 26s
Apparent Declination
-6° 57' 20"
Sunlit
Object is in daylight
Visualization observer readout
Local Sidereal Time
00:20:46
Azimuth
55.512° ENE
Elevation
-43.083°
Doppler factor
1
Orbital elements
Apogee altitude
2,370.087 km
Perigee altitude
1,121.303 km
Semi-major axis
8,123.832 km
Eccentricity
0.0768593
Inclination
69.2088°
RAAN
178.7618°
Arg. of periapsis
4.3819°
True anomaly
63.31674°
Mean anomaly
55.6524°
Eccentric anomaly
59.44461°
Mean motion
2.96416 °/min
BSTAR
0.0042642
Orbital period
121.45 mins
Loading maneuver chart data...
Loading SW <> Apogee altitude chart data...
Loading historical data...
Loading historical data...
Loading historical data...
Loading historical data...
Loading historical data...
Loading historical data...
Loading historical data...

SCOUT B DEB Visibility forecast

Observer location: undefined°, undefined°

Span
Click to sort rows by Start time (UTC) header in descending order
Start Az.
Max El. time (UTC)
Max El. Az.
Max El.
End time (UTC)
End Az.
15 mins2025-05-09 21:58:20.687Z351.922° N2025-05-09 22:05:20.687Z61.076° ENE30.942°2025-05-09 22:13:20.687Z118.05° SE
16 mins2025-05-10 00:03:20.687Z320.439° NNW2025-05-10 00:09:20.687Z260.742° W38.815°2025-05-10 00:19:20.687Z179.177° S
12 mins2025-05-10 13:45:20.687Z207.005° SW2025-05-10 13:51:20.687Z337.623° N44.755°2025-05-10 13:57:20.687Z24.421° NE
6 mins2025-05-10 15:54:20.687Z294.841° NW2025-05-10 15:57:20.687Z323.893° NNW14.908°2025-05-10 16:00:20.687Z351.311° N
|